Location: ???????
(55.9142°N, 37.8256°E)
Time: 18:41:47
(UTC+00:00)

Cosmos 1420 Rocket - Pass Details

Date: 14 April 2024
Orbit: 752 x 779 km, 74.0° (Epoch: 26 May)

Event Time Altitude Azimuth Distance (km) Brightness Sun altitude
Rises 00:28:05 0° 331° (NNW) 3,235 7.4 -14.8°
Reaches altitude 10° 00:30:28 10° 333° (NNW) 2,310 6.7 -14.6°
Maximum altitude 00:35:43 81° 61° (ENE) 784 4.1 -14.0°
Drops below altitude 10° 00:40:59 10° 149° (SSE) 2,313 6.4 -13.5°
Sets 00:43:22 0° 151° (SSE) 3,240 7.1 -13.2°
